GW5269 Weather Reports


time (UTC)temp
C
wind
direction
speed
KPH
gust
KPH
rain 1hr
cm
rain 24hr
cm
rain mn
cm
humidity
%
barometer
mb
20260504110340 7 209 4.8 14.5 0.00 0.00 0.00 69 1014.9
20260504100257 7 176 3.2 6.4 0.00 0.00 0.00 71 1015.0
20260504081650 7 211 1.6 6.4 0.00 0.00 0.00 63 1015.3
20260504081146 7 209 3.2 9.7 0.00 0.00 0.00 60 1015.3
20260504080643 7 170 4.8 4.8 0.00 0.00 0.00 58 1015.4
20260504080139 7 178 4.8 9.7 0.00 0.00 0.00 56 1015.3
20260504070108 7 174 3.2 3.2 0.00 0.00 0.00 57 1015.6
20260504050456 7 233 1.6 6.4 0.00 0.00 0.00 56 1015.8
20260504045953 7 196 1.6 4.8 0.00 0.00 0.00 55 1015.9
20260504045449 7 227 1.6 1.6 0.00 0.00 0.00 55 1015.8
20260504044945 7 234 0.0 3.2 0.00 0.00 0.00 57 1016.1
20260504044443 7 189 1.6 3.2 0.00 0.00 0.00 55 1016.2
20260504043940 7 165 0.0 4.8 0.00 0.00 0.00 53 1015.9
20260504043437 6 189 3.2 9.7 0.00 0.00 0.00 54 1016.1
20260504042934 6 224 1.6 3.2 0.00 0.00 0.00 57 1016.1
20260504042431 6 201 1.6 1.6 0.00 0.00 0.00 56 1015.8
20260504041927 6 224 1.6 3.2 0.00 0.00 0.00 57 1015.8
20260504041424 6 217 0.0 9.7 0.00 0.00 0.00 57 1016.2
20260504040920 6 190 1.6 3.2 0.00 0.00 0.00 59 1015.9
20260504040418 6 165 0.0 1.6 0.00 0.00 0.00 59 1015.9
20260504035913 6 232 0.0 0.0 0.00 0.00 0.00 59 1016.1
20260504035411 6 212 1.6 1.6 0.00 0.00 0.00 57 1015.9
20260504034907 6 215 0.0 0.0 0.00 0.00 0.00 55 1016.1
20260504034405 6 206 0.0 1.6 0.00 0.00 0.00 55 1016.2
20260504033902 6 199 0.0 1.6 0.00 0.00 0.00 56 1016.4
20260504033400 5 177 0.0 1.6 0.00 0.00 0.00 58 1016.3
20260504032856 5 208 0.0 0.0 0.00 0.00 0.00 59 1016.3
20260504032353 6 219 0.0 1.6 0.00 0.00 0.00 58 1016.2
20260504031850 6 206 0.0 1.6 0.00 0.00 0.00 58 1016.4
20260504031347 6 175 1.6 4.8 0.00 0.00 0.00 55 1016.3
20260504030843 6 219 1.6 3.2 0.00 0.00 0.00 56 1016.2
20260504030341 6 224 1.6 1.6 0.00 0.00 0.00 56 1016.4
20260504025837 6 236 1.6 3.2 0.00 0.00 0.00 56 1016.2
20260504025334 6 98 1.6 3.2 0.00 0.00 0.00 55 1016.2
20260504024830 6 235 0.0 6.4 0.00 0.00 0.00 57 1016.2
20260504024327 6 211 1.6 1.6 0.00 0.00 0.00 56 1016.2
20260504023824 6 189 0.0 0.0 0.00 0.00 0.00 60 1016.2
20260504023321 5 209 1.6 4.8 0.00 0.00 0.00 56 1016.1
20260504022816 6 222 1.6 1.6 0.00 0.00 0.00 58 1016.3
20260504022313 6 233 0.0 3.2 0.00 0.00 0.00 60 1016.2
20260504021809 5 211 1.6 1.6 0.00 0.00 0.00 59 1016.2
20260504021308 6 218 0.0 0.0 0.00 0.00 0.00 59 1016.2
20260504020804 6 203 1.6 1.6 0.00 0.00 0.00 57 1016.2
20260504020301 6 202 1.6 1.6 0.00 0.00 0.00 56 1016.2
20260504015757 6 186 0.0 1.6 0.00 0.00 0.00 58 1016.5
20260504015253 6 141 1.6 3.2 0.00 0.00 0.00 59 1016.2
20260504014749 6 169 1.6 1.6 0.00 0.00 0.00 56 1016.2
20260504014246 6 176 1.6 1.6 0.00 0.00 0.00 58 1016.2
20260504013744 6 165 1.6 1.6 0.00 0.00 0.00 57 1016.1
20260504013241 6 196 0.0 3.2 0.00 0.00 0.00 58 1016.3
20260504012737 6 179 1.6 1.6 0.00 0.00 0.00 57 1016.1
20260504012235 6 140 1.6 4.8 0.00 0.00 0.00 55 1015.9
20260504011732 6 138 0.0 1.6 0.00 0.00 0.00 56 1015.9
20260504011229 6 193 0.0 3.2 0.00 0.00 0.00 58 1016.1
20260504010725 5 310 0.0 4.8 0.00 0.00 0.00 57 1015.8
20260504010220 6 329 0.0 0.0 0.00 0.00 0.00 63 1015.9
20260504005717 6 137 0.0 0.0 0.00 0.00 0.00 59 1015.8
20260504005215 6 145 0.0 0.0 0.00 0.00 0.00 59 1015.8
20260504004712 6 145 0.0 1.6 0.00 0.00 0.00 57 1015.7
20260504004209 6 247 0.0 1.6 0.00 0.00 0.00 59 1015.9
20260504003706 6 210 0.0 0.0 0.00 0.00 0.00 55 1015.7
20260504003202 6 281 0.0 0.0 0.00 0.00 0.00 55 1015.9
20260504002659 6 223 0.0 1.6 0.00 0.00 0.00 56 1015.8
20260504002156 7 261 0.0 4.8 0.00 0.00 0.00 58 1015.8
20260504001654 6 181 1.6 1.6 0.00 0.00 0.00 57 1015.9
20260504001150 7 174 3.2 3.2 0.00 0.00 0.00 56 1015.9
20260504000647 6 160 1.6 3.2 0.00 0.00 0.00 57 1016.1
20260504000145 6 184 1.6 1.6 0.00 0.00 0.00 53 1015.8
20260503235643 6 190 0.0 0.0 0.00 0.00 0.00 56 1015.8
20260503235139 7 170 0.0 1.6 0.00 0.00 0.00 57 1015.8
20260503234637 7 186 3.2 3.2 0.00 0.00 0.00 53 1015.9
20260503234135 7 210 1.6 3.2 0.00 0.00 0.00 55 1015.9
20260503233632 7 173 1.6 1.6 0.00 0.00 0.00 56 1015.9
20260503233127 7 234 1.6 1.6 0.00 0.00 0.00 51 1015.9
20260503232625 8 215 1.6 3.2 0.00 0.00 0.00 53 1016.1
20260503232122 8 219 1.6 6.4 0.00 0.00 0.00 51 1015.9
20260503231620 8 13 0.0 1.6 0.00 0.00 0.00 50 1015.9
20260503231116 8 233 3.2 4.8 0.00 0.00 0.00 51 1015.9
20260503230613 8 206 1.6 4.8 0.00 0.00 0.00 48 1015.8
20260503230110 8 202 1.6 4.8 0.00 0.00 0.00 49 1015.9
20260503225608 8 94 3.2 4.8 0.00 0.00 0.00 48 1016.1
20260503225107 8 152 3.2 3.2 0.00 0.00 0.00 46 1016.1
20260503224605 8 255 4.8 14.5 0.00 0.00 0.00 43 1016.2
20260503224103 9 184 3.2 4.8 0.00 0.00 0.00 47 1015.7
20260503223601 9 166 3.2 4.8 0.00 0.00 0.00 48 1015.9
20260503223102 9 69 1.6 3.2 0.00 0.00 0.00 45 1015.9
20260503222600 9 188 3.2 9.7 0.00 0.00 0.00 42 1015.9
20260503222057 9 224 1.6 6.4 0.00 0.00 0.00 47 1016.1
20260503221555 9 214 0.0 4.8 0.00 0.00 0.00 43 1016.1
20260503221053 10 261 1.6 6.4 0.00 0.00 0.00 44 1015.9
20260503220548 10 108 1.6 3.2 0.00 0.00 0.00 45 1015.8
20260503220046 10 73 0.0 1.6 0.00 0.00 0.00 45 1015.8
20260503215543 10 217 1.6 3.2 0.00 0.00 0.00 43 1016.1
20260503215040 10 251 3.2 9.7 0.00 0.00 0.00 42 1015.9
20260503214538 10 123 3.2 6.4 0.00 0.00 0.00 45 1016.1
20260503214034 10 153 8.0 12.9 0.00 0.00 0.00 42 1015.9
20260503213533 10 207 6.4 9.7 0.00 0.00 0.00 41 1015.8
20260503213029 10 148 6.4 11.3 0.00 0.00 0.00 47 1016.1
20260503212526 10 147 4.8 11.3 0.00 0.00 0.00 45 1015.9
20260503212024 10 136 9.7 12.9 0.00 0.00 0.00 39 1016.1
20260503211521 10 144 9.7 12.9 0.00 0.00 0.00 48 1016.1
20260503211016 11 234 4.8 6.4 0.00 0.00 0.00 41 1016.4
20260503210513 11 347 0.0 3.2 0.00 0.00 0.00 39 1016.1
20260503210009 10 131 3.2 11.3 0.00 0.00 0.00 41 1016.3
20260503205506 11 124 3.2 11.3 0.00 0.00 0.00 43 1015.9
20260503205001 11 313 1.6 14.5 0.00 0.00 0.00 40 1016.4
20260503204459 11 204 3.2 12.9 0.00 0.00 0.00 40 1016.3
20260503203955 12 81 6.4 9.7 0.00 0.00 0.00 37 1016.1
20260503203454 12 73 4.8 6.4 0.00 0.00 0.00 38 1016.3
20260503202950 11 83 6.4 9.7 0.00 0.00 0.00 39 1016.3
20260503202448 12 229 3.2 4.8 0.00 0.00 0.00 37 1016.2
20260503201946 11 308 1.6 4.8 0.00 0.00 0.00 44 1016.3
20260503201444 11 177 3.2 11.3 0.00 0.00 0.00 39 1016.4
20260503200941 11 197 4.8 14.5 0.00 0.00 0.00 50 1016.7
20260503200437 11 151 3.2 6.4 0.00 0.00 0.00 49 1016.8
20260503195934 10 166 4.8 14.5 0.00 0.00 0.00 46 1016.6
20260503195432 11 206 3.2 6.4 0.00 0.00 0.00 47 1016.8
20260503194928 10 191 3.2 11.3 0.00 0.00 0.00 45 1017.0
20260503194425 11 203 1.6 6.4 0.00 0.00 0.00 48 1016.9
20260503193920 11 259 3.2 12.9 0.00 0.00 0.00 42 1017.1
20260503193416 12 264 3.2 6.4 0.00 0.00 0.00 46 1017.0
20260503192911 11 203 1.6 6.4 0.00 0.00 0.00 49 1017.0
20260503192408 11 232 1.6 4.8 0.00 0.00 0.00 44 1017.0
20260503191904 11 206 3.2 12.9 0.00 0.00 0.00 51 1017.1
20260503191401 10 155 6.4 14.5 0.00 0.00 0.00 52 1017.1
20260503190857 11 165 4.8 6.4 0.00 0.00 0.00 42 1017.0
20260503190355 9 216 3.2 11.3 0.00 0.00 0.00 42 1017.0
20260503185852 9 116 8.0 11.3 0.00 0.00 0.00 45 1017.4
20260503185348 10 110 3.2 4.8 0.00 0.00 0.00 42 1017.2
20260503184848 11 106 0.0 3.2 0.00 0.00 0.00 42 1017.2
20260503184344 10 133 3.2 6.4 0.00 0.00 0.00 49 1017.2
20260503183840 10 129 1.6 14.5 0.00 0.00 0.00 43 1017.4
20260503183337 10 273 11.3 14.5 0.00 0.00 0.00 46 1017.5
20260503182835 11 110 4.8 6.4 0.00 0.00 0.00 43 1017.5
20260503182334 10 205 3.2 4.8 0.00 0.00 0.00 46 1017.6
20260503181830 10 237 3.2 6.4 0.00 0.00 0.00 42 1017.6
20260503181327 10 91 0.0 12.9 0.00 0.00 0.00 44 1017.7
20260503180824 9 192 3.2 9.7 0.00 0.00 0.00 48 1017.6
20260503180322 10 174 3.2 4.8 0.00 0.00 0.00 47 1017.6
20260503175818 10 359 4.8 6.4 0.00 0.00 0.00 48 1017.7
20260503175316 9 162 8.0 11.3 0.00 0.00 0.00 46 1017.7
20260503174811 8 197 0.0 9.7 0.00 0.00 0.00 48 1017.7
20260503174310 8 274 1.6 3.2 0.00 0.00 0.00 50 1017.9
20260503173805 8 123 3.2 9.7 0.00 0.00 0.00 49 1017.9
20260503173301 8 68 1.6 9.7 0.00 0.00 0.00 50 1017.8
20260503172758 8 122 0.0 3.2 0.00 0.00 0.00 53 1017.8
20260503172256 9 249 3.2 11.3 0.00 0.00 0.00 51 1017.8
20260503171752 9 144 3.2 11.3 0.00 0.00 0.00 58 1017.9
20260503171249 8 259 1.6 6.4 0.00 0.00 0.00 54 1018.1
20260503170746 7 220 4.8 6.4 0.00 0.00 0.00 53 1018.2
20260503170242 7 254 1.6 6.4 0.00 0.00 0.00 51 1018.1
20260503160205 8 213 6.4 9.7 0.00 0.00 0.00 52 1018.4
20260503150635 6 55 0.0 6.4 0.00 0.00 0.00 58 1018.6
20260503150131 7 236 1.6 6.4 0.00 0.00 0.00 58 1018.6
20260503131014 3 81 3.2 6.4 0.00 0.00 0.00 80 1018.0
20260503130511 2 76 0.0 1.6 0.00 0.00 0.00 83 1018.1